Kankakee, IL

9:05 AM CDT on May 24, 2017 (GMT -0500)
Greater Kankakee

Weather History for KIKK - November, 2014

Change the Weather History Date:

Wednesday, November 5, 2014

  Actual Average Record
Temperature  
Mean Temperature 47 °F -  
Max Temperature 62 °F 52 °F 76 °F (1978)
Min Temperature 32 °F 34 °F 10 °F (1991)
Degree Days  
Heating Degree Days 18    
Moisture  
Dew Point 39 °F    
Average Humidity 74    
Maximum Humidity 97    
Minimum Humidity 42    
Precipitation  
Precipitation 0.01 in - - ()
Sea Level Pressure  
Sea Level Pressure 30.09 in    
Wind  
Wind Speed 8 mph (SSW)    
Max Wind Speed 18 mph    
Max Gust Speed 23 mph    
Visibility 10 miles    
Events Rain    
Averages and records for this station are not official NWS values.
T = Trace of Precipitation, MM = Missing Value Source: NWS Daily Summary

Daily Weather History Graph

Daily Weather History Graph

Search for Another Location

Airport or City:

Trip Planner

Search our weather history database for the weather conditions in past years. The results will help you decide how hot, cold, wet, or windy it might be!

Date:

Astronomy

Nov. 05, 2014 Rise Set
Actual Time 6:27 AM CST 4:42 PM CST
Civil Twilight 5:58 AM CST 5:11 PM CST
Nautical Twilight 5:25 AM CST 5:43 PM CST
Astronomical Twilight 4:53 AM CST 6:16 PM CST
Moon 4:08 PM CST (11/5) 4:51 AM CST (11/5)
Length of Visible Light 11h 12m
Length of Day
10h 15m
Waxing Gibbous, 98% of the Moon is Illuminated
Nov 5
Waxing Gibbous
Nov 6
Full
Nov 14
Last Quarter
Nov 22
New
Nov 29
First Quarter

Hourly Weather History & Observations

Time (CST) Temp. Windchill Dew Point Humidity Pressure Visibility Wind Dir Wind Speed Gust Speed Precip Events Conditions
12:15 AM 39.9 °F 34.5 °F 36.9 °F 89% 30.13 in 10.0 mi SW 8.1 mph - N/A   Clear
12:35 AM 39.6 °F 34.7 °F 36.9 °F 90% 30.13 in 10.0 mi SW 6.9 mph - N/A   Clear
12:55 AM 40.1 °F 34.7 °F 37.0 °F 89% 30.14 in 10.0 mi WSW 8.1 mph - N/A   Clear
1:15 AM 39.7 °F 34.3 °F 37.0 °F 90% 30.14 in 10.0 mi WSW 8.1 mph - N/A   Clear
1:35 AM 39.4 °F 34.5 °F 36.9 °F 91% 30.14 in 10.0 mi SW 6.9 mph - N/A   Clear
1:55 AM 39.6 °F 34.7 °F 37.0 °F 91% 30.15 in 10.0 mi WSW 6.9 mph - N/A   Clear
2:15 AM 39.7 °F 36.5 °F 37.0 °F 90% 30.15 in 10.0 mi WSW 4.6 mph - N/A   Clear
2:35 AM 39.4 °F 36.1 °F 36.9 °F 91% 30.15 in 10.0 mi WSW 4.6 mph - N/A   Clear
2:55 AM 38.3 °F 34.8 °F 36.5 °F 93% 30.15 in 10.0 mi West 4.6 mph - N/A   Clear
3:15 AM 38.3 °F 34.8 °F 35.6 °F 90% 30.16 in 10.0 mi WSW 4.6 mph - N/A   Clear
3:35 AM 37.4 °F 34.9 °F 35.4 °F 93% 30.15 in 10.0 mi SW 3.5 mph - N/A   Clear
3:55 AM 35.6 °F - 33.8 °F 93% 30.15 in 10.0 mi Calm Calm - N/A   Clear
4:15 AM 36.5 °F - 35.1 °F 95% 30.15 in 10.0 mi Calm Calm - N/A   Clear
4:35 AM 36.1 °F - 34.7 °F 94% 30.16 in 10.0 mi Calm Calm - N/A   Clear
4:55 AM 35.4 °F 31.5 °F 34.0 °F 94% 30.16 in 10.0 mi SSW 4.6 mph - N/A   Clear
5:15 AM 33.8 °F 29.6 °F 32.4 °F 94% 30.16 in 10.0 mi SW 4.6 mph - N/A   Clear
5:35 AM 33.6 °F - 32.4 °F 95% 30.16 in 7.0 mi Calm Calm - N/A   Clear
5:55 AM 33.8 °F 30.8 °F 32.9 °F 96% 30.16 in 10.0 mi SSW 3.5 mph - N/A   Clear
6:15 AM 33.1 °F 28.7 °F 32.2 °F 96% 30.17 in 7.0 mi SW 4.6 mph - N/A   Clear
6:35 AM 32.9 °F 27.5 °F 32.2 °F 97% 30.17 in 7.0 mi SSW 5.8 mph - N/A   Clear
6:55 AM 33.4 °F 27.3 °F 32.5 °F 96% 30.17 in 7.0 mi SSW 6.9 mph - N/A   Clear
7:15 AM 35.2 °F 30.3 °F 33.8 °F 94% 30.18 in 7.0 mi SW 5.8 mph - N/A   Clear
7:35 AM 37.6 °F 34.0 °F 36.0 °F 94% 30.18 in 10.0 mi SSW 4.6 mph - N/A   Clear
7:55 AM 41.0 °F 35.8 °F 38.3 °F 90% 30.18 in 10.0 mi SW 8.1 mph - N/A   Clear
8:15 AM 43.0 °F 38.2 °F 39.6 °F 88% 30.18 in 10.0 mi SW 8.1 mph - N/A   Clear
8:35 AM 45.0 °F 41.2 °F 40.6 °F 85% 30.17 in 10.0 mi SW 6.9 mph - N/A   Clear
8:55 AM 46.2 °F 44.1 °F 41.0 °F 82% 30.17 in 10.0 mi SW 4.6 mph - N/A   Clear
9:15 AM 48.6 °F - 42.3 °F 79% 30.17 in 10.0 mi SSW 5.8 mph - N/A   Clear
9:35 AM 50.4 °F - 43.2 °F 76% 30.17 in 10.0 mi SSW 5.8 mph - N/A   Clear
9:55 AM 52.2 °F - 43.5 °F 72% 30.16 in 10.0 mi SW 6.9 mph - N/A   Clear
10:15 AM 53.2 °F - 43.2 °F 69% 30.17 in 10.0 mi SSW 6.9 mph - N/A   Clear
10:35 AM 55.0 °F - 43.3 °F 65% 30.16 in 10.0 mi South 9.2 mph - N/A   Clear
10:55 AM 55.8 °F - 44.2 °F 65% 30.14 in 10.0 mi South 8.1 mph - N/A   Clear
11:15 AM 57.0 °F - 45.0 °F 64% 30.14 in 10.0 mi SSW 9.2 mph - N/A   Clear
11:35 AM 58.1 °F - 43.9 °F 59% 30.13 in 10.0 mi South 10.4 mph - N/A   Clear
11:55 AM 59.2 °F - 44.1 °F 57% 30.12 in 10.0 mi SSW 10.4 mph 16.1 mph N/A   Clear
12:15 PM 59.9 °F - 44.4 °F 57% 30.12 in 10.0 mi SSW 12.7 mph - N/A   Clear
12:35 PM 61.5 °F - 43.3 °F 51% 30.11 in 10.0 mi SW 11.5 mph 18.4 mph N/A   Clear
12:55 PM 61.9 °F - 39.9 °F 44% 30.10 in 10.0 mi SW 12.7 mph - N/A   Clear
1:15 PM 61.9 °F - 39.4 °F 43% 30.09 in 10.0 mi SW 15.0 mph 19.6 mph N/A   Clear
1:35 PM 62.6 °F - 39.2 °F 42% 30.08 in 10.0 mi SW 18.4 mph 23.0 mph N/A   Clear
1:55 PM 62.1 °F - 39.9 °F 44% 30.07 in 10.0 mi SSW 16.1 mph 19.6 mph N/A   Clear
2:15 PM 61.9 °F - 40.5 °F 45% 30.07 in 10.0 mi SSW 13.8 mph 20.7 mph N/A   Clear
2:35 PM 60.6 °F - 39.9 °F 46% 30.07 in 10.0 mi SSW 11.5 mph 19.6 mph N/A   Clear
2:55 PM 59.9 °F - 39.7 °F 47% 30.07 in 10.0 mi SSW 16.1 mph 19.6 mph N/A   Clear
3:15 PM 59.2 °F - 38.7 °F 47% 30.06 in 10.0 mi SSW 13.8 mph 18.4 mph N/A   Clear
3:35 PM 58.1 °F - 37.8 °F 47% 30.06 in 10.0 mi SSW 13.8 mph - N/A   Clear
3:55 PM 57.4 °F - 37.4 °F 47% 30.06 in 10.0 mi SSW 10.4 mph - N/A   Clear
4:15 PM 55.6 °F - 37.0 °F 50% 30.05 in 10.0 mi SSW 11.5 mph - N/A   Clear
4:35 PM 54.5 °F - 37.4 °F 52% 30.04 in 10.0 mi South 9.2 mph - N/A   Clear
4:55 PM 53.8 °F - 38.3 °F 56% 30.04 in 10.0 mi South 9.2 mph - N/A   Clear
5:15 PM 53.1 °F - 38.8 °F 59% 30.04 in 10.0 mi South 10.4 mph - N/A   Clear
5:35 PM 53.1 °F - 38.5 °F 58% 30.04 in 10.0 mi South 10.4 mph - N/A   Clear
5:55 PM 52.7 °F - 39.2 °F 60% 30.03 in 10.0 mi South 9.2 mph - N/A   Clear
6:15 PM 52.5 °F - 40.1 °F 63% 30.02 in 10.0 mi South 12.7 mph 16.1 mph N/A   Clear
6:35 PM 51.8 °F - 40.3 °F 65% 30.03 in 10.0 mi South 10.4 mph - N/A   Clear
6:55 PM 51.3 °F - 40.3 °F 66% 30.02 in 10.0 mi South 12.7 mph - N/A   Clear
7:15 PM 50.9 °F - 40.1 °F 67% 30.00 in 10.0 mi SSE 11.5 mph 17.3 mph N/A   Clear
7:35 PM 50.0 °F - 41.0 °F 71% 30.01 in 10.0 mi South 11.5 mph - N/A   Clear
7:55 PM 50.0 °F - 41.5 °F 73% 30.01 in 10.0 mi South 10.4 mph - N/A   Clear
8:15 PM 50.0 °F - 41.9 °F 74% 30.00 in 10.0 mi South 12.7 mph 17.3 mph N/A   Scattered Clouds
8:35 PM 49.6 °F - 41.9 °F 75% 30.00 in 10.0 mi South 16.1 mph - N/A   Overcast
8:55 PM 49.3 °F - 42.1 °F 76% 29.99 in 10.0 mi South 16.1 mph 20.7 mph N/A   Overcast
9:15 PM 48.7 °F - 42.1 °F 78% 29.99 in 10.0 mi South 15.0 mph - N/A   Overcast
9:35 PM 48.4 °F - 42.3 °F 79% 29.96 in 10.0 mi South 18.4 mph - N/A Rain Light Rain
9:55 PM 49.1 °F - 41.4 °F 75% 29.96 in 10.0 mi South 17.3 mph - N/A   Overcast
10:15 PM 48.4 °F - 41.0 °F 76% 29.95 in 10.0 mi South 12.7 mph - N/A   Overcast
10:35 PM 48.2 °F - 41.4 °F 77% 29.93 in 10.0 mi South 9.2 mph 17.3 mph N/A Rain Light Rain
10:55 PM 47.7 °F - 41.9 °F 80% 29.93 in 10.0 mi South 11.5 mph - N/A Rain Light Rain
11:15 PM 47.5 °F - 43.2 °F 85% 29.92 in 10.0 mi SSW 6.9 mph 18.4 mph N/A Rain Rain
11:35 PM 47.5 °F - 43.9 °F 87% 29.91 in 10.0 mi South 10.4 mph - N/A Rain Light Rain
11:55 PM 47.3 °F - 44.6 °F 90% 29.90 in 10.0 mi South 10.4 mph - 0.01 in Rain Light Rain